Regional Weather Roundup
Issued by NWS

Home | Current Version | Previous Version | Graphics & Text | Print | Product List | Glossary On
Versions: 1 2 3 4 5 6 7 8 9 10 11 12 13 14 15 16 17 18 19 20 21 22 23 24 25 26 27 28 29 30 31 32 33 34 35 36 37 38 39 40 41 42 43 44 45 46 47 48 49 50
000
ASUS45 KCYS 260710
RWRWY

WYOMING REGIONAL WEATHER ROUNDUP
NATIONAL WEATHER SERVICE CHEYENNE WY
100 AM MDT THU MAR 26 2015

NOTE:  "FAIR" INDICATES FEW OR NO CLOUDS BELOW 12,000 FEET
WITH NO SIGNIFICANT WEATHER AND/OR OBSTRUCTIONS TO VISIBILITY.

WYZ001-260800-
YELLOWSTONE NATIONAL PARK

CITY           SKY/WX    TMP DP  RH WIND       PRES   REMARKS
LK YELLOWSTONE   N/A     21  16  81 E5        30.33F WCI  15
W YELLOWSTONE  NOT AVBL

$$
WYZ002>013-054>058-071-098>099-260800-
NORTHERN WYOMING

CITY           SKY/WX    TMP DP  RH WIND       PRES   REMARKS
JACKSON        MOCLDY    30  21  69 SW8       30.35S WCI  23
CODY           FAIR      43  18  36 W22G38    30.18S
GREYBULL       CLOUDY    41  22  46 SW3       30.16F
WORLAND        CLOUDY    35  24  64 SW7       30.18S WCI  29
SHERIDAN       CLOUDY    39  31  72 S5        30.12F
BUFFALO        CLOUDY    37  27  67 W5        30.15F WCI  33
GILLETTE       CLOUDY    38  28  67 S13       30.14F WCI  30
HULETT         CLOUDY    37  30  75 SW10G16   30.15F WCI  30
NEWCASTLE      FAIR      30  23  74 CALM      30.19S

$$
WYZ014>020-022>026-101>103-260800-
CENTRAL WYOMING

CITY           SKY/WX    TMP DP  RH WIND       PRES   REMARKS
BIG PINEY      FAIR      20  12  71 SE3       30.35R
PINEDALE       PTSUNNY   27  19  74 NW8       30.35R WCI  18
DUBOIS         FAIR      28  14  54 NW12G17   30.29S WCI  18
LANDER         FAIR      35  15  44 CALM      30.22R
RIVERTON       FAIR      39  17  41 NW23G32   30.22R WCI  28
CASPER         FAIR      31  23  72 SW9       30.19R WCI  23
DOUGLAS        FAIR      25  23  92 CALM      30.19S

$$
WYZ021-027>030-104>119-260800-
SOUTHERN WYOMING

CITY           SKY/WX    TMP DP  RH WIND       PRES   REMARKS
EVANSTON       FAIR      27  17  66 SW8       30.39S WCI  19
FORT BRIDGER   FAIR      32  19  59 W12       30.39F WCI  23
ROCK SPRINGS   FAIR      30  18  60 W20       30.32F WCI  17
DIXON          FAIR      26  17  67 CALM      30.35S
RAWLINS        FAIR      28  17  63 SW12      30.26S WCI  18
SARATOGA       FAIR      30  16  55 W14       30.28S WCI  20
LARAMIE        FAIR      23  16  74 W6        30.20S WCI  16
CHEYENNE       FAIR      25  22  88 SW7       30.19F WCI  17
TORRINGTON     FAIR      30  27  88 CALM      30.20F
PINE BLUFFS    FAIR      25  23  93 CALM      30.22F

$$


USA.gov is the U.S. government's official web portal to all federal, state and local government web resources and services.